CanjetBLOCKVirtuelBLOCKQcBLOCKBLOCKBLOCKBLOCKBLOCKBLOCKBLOCKBLOCKBLOCKBLOCKBLOCKvolsBLOCKavecBLOCKFS-kACARS2022-12-06BLOCK10colon50pm

volsBLOCKBLOCKBLOCKBLOCKBLOCKpilotesBLOCKBLOCKBLOCKBLOCKBLOCKBLOCKBLOCKBLOCKtypeBLOCKBLOCKdepBLOCKBLOCKarrBLOCKBLOCKBLOCKBLOCKBLOCKaltBLOCKBLOCKBLOCKBLOCKBLOCKgsBLOCKBLOCKBLOCKBLOCKstatut

aucunBLOCKvolsBLOCKenBLOCKceBLOCKmomentBLOCKavecBLOCKFS-KACARSBLOCK













BLOCKAppuyerBLOCKsurBLOCKF5BLOCKpourBLOCKactualiserBLOCKBLOCKBLOCKMiseBLOCKaBLOCKjourcolonBLOCK22colon50colon03pmCanjetBLOCKvirtuelBLOCKQC

Bienvenue

Publié par Michel Ayotte le 2022-01-19

Bienvenue aux nouveaux pilotes chez Canjetvirtuel-Québec 

Joyeuses Fêtes à tous.

? 37 Noël images, photos et illustrations pour whatsapp ...


Bienvenue chez Canjetvirtuel-Q

Publié par Michel Ayotte le 2013-06-14

 

Canjetvirtuel-Québec est une compagnie aérienne virtuelle qui a été fondée par 2 passionnés de la simulation de vol.

Elle est opérée avec les Boeing 737. Exceptionnelement et pour votre plaisir tous les autres versions de Boeing et Airbus sont autorisées.

Ces appareils pouvant faire des vols cargos ou des vols passagers, que ce soit au Canada, Europe, États-Unis, Mexique, Caraïbes et autres destinations mondiales.

Vous trouverez votre place comme pilote chez nous!



Avis

Aux fins de la simulation de vol seulement. CanjetVirtuel Québec n'est en aucun cas affilié avec n'importe quelle compagnie aérienne du monde réel. CanjetVirtuel Québec est un site à but non lucratif gérée par des amateurs de simulation de vol. Toutes les images sont la propriété exclusive de leurs propriétaires respectifs.
| propulsé par phpVMS, © 2013-2020.

Notice

For flight simulation purposes only. CanjetVirtuel Quebec is in no way affiliated with any real world airline. CanjetVirtuel Quebec is a non-profit site run by flight simulation enthusiasts. All images are the sole property of their respective owners.
| powered by phpVMS, © 2013-2020.

Affiliations

Vatsim

Les statistiques du site

Nombre de pilotes: 14
Total des vols effectués: 8832
Trajets disponibles: 736
Passagers transportés: 2173143
Total des heures de vol: 30138
Distance totale (NM): 11795267
Pilotes en ligne: 0

Nouvelles

Bienvenue
01/19/2022
Bienvenue chez Canjetvirtuel-Q
06/14/2013

METAR

CYHZ 070310Z 12007KT 5/8SM R14/4500VP6000FT/D BR VV003 04/04 A3057 RMK FG8 SLP359

CYQB 070300Z 06010KT 1 1/4SM -RA BR BKN002 OVC010 03/03 A3032 RMK FG4SF3SC1 VIS VRB 3/4-13/4 SLP274

CYUL 070300Z 03003KT 4SM -RA BR FEW003 BKN014 BKN027 OVC040 05/05 A3019 RMK SF1SC4SC2SC1 SLP226

CYYZ 070300Z 08003KT 10SM -DZ OVC015 05/05 A3009 RMK ST8 SLP195